�N����,����,�~����,�C��,���x,�C��,����,���ϕ���,�ő�u�ԕ���,�ő厞����,���˗�,�I�_���x,�n�����x
"23/08/01","01:00",0.0,25.3,88.3,1006.9,304.2,1.1,2.6,336.1,0.00,23.3,25.8
"23/08/01","02:00",0.0,25.0,88.9,1006.4,321.5,0.5,2.2,336.8,0.00,23.1,25.7
"23/08/01","03:00",0.0,25.4,87.9,1007.1,330.0,1.2,2.1,326.0,0.00,23.3,25.8
"23/08/01","04:00",0.0,25.4,86.1,1006.4,311.9,1.0,2.1,348.9,0.00,22.9,25.4
"23/08/01","05:00",0.0,24.4,87.9,1006.2,320.7,0.3,1.7,256.0,0.00,22.3,25.4
"23/08/01","06:00",0.0,25.7,86.6,1007.8,332.8,1.6,4.0,331.8,0.00,23.3,25.2
"23/08/01","07:00",0.0,28.1,79.4,1007.8,342.6,1.1,3.1,350.0,0.36,24.2,25.2
"23/08/01","08:00",0.0,32.2,65.1,1008.6,88.9,0.6,1.9,8.7,1.07,24.8,25.4
"23/08/01","09:00",0.0,33.6,59.5,1009.5,136.5,0.7,2.7,132.4,1.86,24.7,25.6
"23/08/01","10:00",0.0,33.6,59.2,1008.8,162.2,1.7,3.7,182.1,2.00,24.6,25.9
"23/08/01","11:00",0.0,35.1,55.5,1009.3,200.4,1.1,4.4,192.6,2.51,24.9,26.3
"23/08/01","12:00",0.0,36.5,49.8,1008.8,165.2,1.2,4.2,177.3,3.08,24.4,26.8
"23/08/01","13:00",0.0,36.9,45.8,1008.3,220.8,2.1,4.3,221.2,3.24,23.3,27.6
"23/08/01","14:00",0.0,38.2,39.9,1008.1,211.3,1.0,4.4,224.9,3.11,22.2,28.1
"23/08/01","15:00",0.0,37.2,40.9,1006.4,298.8,1.2,4.8,225.3,2.32,21.7,28.4
"23/08/01","16:00",0.0,37.8,40.9,1005.5,271.1,1.1,4.5,345.5,1.43,22.3,28.2
"23/08/01","17:00",0.0,36.6,45.8,1005.2,231.1,2.1,4.3,221.9,0.97,23.1,28.3
"23/08/01","18:00",0.0,32.6,58.0,1005.5,174.1,3.2,7.0,215.7,0.33,23.3,28.2
"23/08/01","19:00",0.0,30.4,61.1,1004.1,176.2,0.8,5.6,192.6,0.05,22.1,27.7
"23/08/01","20:00",0.0,29.7,64.1,1005.5,201.5,0.8,3.1,228.7,0.00,22.2,27.3
"23/08/01","21:00",0.0,28.8,67.0,1006.7,340.6,0.8,4.2,187.0,0.00,22.1,27.3
"23/08/01","22:00",0.0,26.9,74.9,1006.4,326.0,1.0,1.9,340.0,0.00,22.1,26.7
"23/08/01","23:00",0.0,26.2,78.3,1007.1,329.8,0.8,2.2,340.8,0.00,22.2,26.6
"23/08/01","24:00",0.0,25.3,82.4,1006.7,301.9,0.7,1.3,338.3,0.00,22.1,26.2
"23/08/02","01:00",0.0,24.9,84.0,1006.2,311.7,0.6,1.9,318.8,0.00,22.0,25.9
"23/08/02","02:00",0.0,24.9,84.3,1005.7,325.9,0.7,1.6,312.3,0.00,22.1,26.0
"23/08/02","03:00",0.0,24.6,84.7,1006.2,324.0,0.7,1.7,6.7,0.00,21.9,25.6
"23/08/02","04:00",0.0,23.8,87.2,1006.7,334.6,0.8,1.4,338.7,0.00,21.6,25.4
"23/08/02","05:00",0.0,23.4,89.1,1006.4,302.3,0.7,1.9,324.0,0.00,21.5,25.3
"23/08/02","06:00",0.0,23.9,90.2,1007.1,334.8,0.7,1.7,335.6,0.00,22.2,25.1
"23/08/02","07:00",0.0,28.6,80.7,1006.7,1.6,0.5,1.6,346.0,0.39,25.0,25.0
"23/08/02","08:00",0.0,31.1,69.8,1007.6,68.1,0.6,1.6,347.2,0.92,25.0,25.1
"23/08/02","09:00",0.0,32.6,61.6,1009.0,132.5,1.2,3.3,149.6,1.84,24.3,25.4
"23/08/02","10:00",0.0,33.2,56.5,1008.6,196.6,1.8,5.1,124.5,2.59,23.4,25.8
"23/08/02","11:00",0.0,34.6,51.1,1007.8,199.2,2.5,5.7,225.4,3.10,23.1,26.3
"23/08/02","12:00",0.0,35.6,49.4,1007.1,168.7,1.8,5.5,228.8,2.98,23.4,27.0
"23/08/02","13:00",0.0,35.6,48.2,1006.2,159.2,1.8,5.9,204.8,2.69,23.0,27.6
"23/08/02","14:00",0.0,37.5,41.4,1006.4,205.8,1.8,5.2,222.4,3.12,22.2,28.1
"23/08/02","15:00",0.0,37.2,43.3,1006.2,273.0,1.3,5.2,216.4,2.47,22.7,28.2
"23/08/02","16:00",0.0,36.7,45.7,1004.8,321.8,1.3,4.8,205.4,1.49,23.1,28.3
"23/08/02","17:00",0.0,36.3,46.4,1004.3,255.1,1.6,4.7,237.6,1.15,23.0,28.2
"23/08/02","18:00",0.0,34.5,50.5,1003.8,228.1,2.2,5.0,228.4,0.46,22.8,28.0
"23/08/02","19:00",0.0,32.2,55.0,1003.1,273.6,1.6,4.2,230.9,0.09,22.1,27.7
"23/08/02","20:00",0.0,30.5,62.2,1003.4,327.6,1.6,6.2,235.9,0.00,22.5,27.7
"23/08/02","21:00",0.0,30.0,66.1,1003.4,313.5,1.1,3.7,321.6,0.00,23.0,27.2
"23/08/02","22:00",0.0,29.2,70.4,1003.8,331.9,0.6,2.5,356.2,0.00,23.3,26.8
"23/08/02","23:00",0.0,28.9,70.6,1003.8,180.8,0.8,2.4,249.8,0.00,23.1,26.8
"23/08/02","24:00",0.0,27.5,76.9,1004.1,337.7,0.7,2.2,346.0,0.00,23.1,26.5
"23/08/03","01:00",0.0,26.4,81.6,1004.1,311.1,0.8,1.9,330.5,0.00,23.0,26.5
"23/08/03","02:00",0.0,25.7,83.8,1004.1,325.3,0.5,1.6,322.5,0.00,22.8,26.0
"23/08/03","03:00",0.0,25.4,85.4,1004.3,334.8,0.7,1.6,313.7,0.00,22.8,25.9
"23/08/03","04:00",0.0,25.0,87.3,1005.2,310.4,0.7,1.2,299.1,0.00,22.8,25.7
"23/08/03","05:00",0.0,24.6,88.3,1005.2,320.8,1.0,1.4,335.8,0.00,22.6,25.6
"23/08/03","06:00",0.0,25.0,88.5,1005.0,292.8,0.8,1.6,327.1,0.00,23.0,25.4
"23/08/03","07:00",0.0,28.9,80.9,1005.0,49.5,0.2,1.3,352.2,0.32,25.3,25.3
"23/08/03","08:00",0.0,31.0,67.5,1006.0,350.4,0.7,1.7,340.0,0.96,24.3,25.3
"23/08/03","09:00",0.0,32.2,61.3,1006.7,184.3,1.3,3.4,141.9,1.70,23.8,25.6
"23/08/03","10:00",0.0,33.7,55.2,1007.1,165.1,2.0,4.2,220.4,2.62,23.5,26.2
"23/08/03","11:00",0.0,35.4,54.1,1006.2,144.5,1.5,5.4,190.5,2.80,24.7,26.7
"23/08/03","12:00",0.0,36.0,49.9,1006.0,186.9,2.7,6.4,222.4,3.21,23.9,27.2
"23/08/03","13:00",0.0,36.6,45.3,1005.7,195.0,2.6,6.5,234.1,3.12,22.9,27.9
"23/08/03","14:00",0.0,36.8,44.2,1004.5,269.8,1.6,5.1,235.8,2.73,22.7,28.2
"23/08/03","15:00",0.0,35.7,43.9,1003.8,197.3,1.7,4.7,225.1,2.16,21.6,28.4
"23/08/03","16:00",0.0,36.3,46.4,1003.4,238.2,2.6,7.4,212.9,1.69,23.0,28.6
"23/08/03","17:00",0.0,35.0,51.5,1002.9,224.6,1.6,6.4,214.4,1.23,23.6,28.5
"23/08/03","18:00",0.0,32.4,58.1,1002.4,193.2,2.3,5.0,219.4,0.34,23.1,28.3
"23/08/03","19:00",0.0,31.4,61.3,1001.7,263.9,1.2,4.9,230.5,0.02,23.1,27.9
"23/08/03","20:00",0.0,30.5,63.7,1001.7,243.0,2.0,4.9,231.4,0.00,22.9,27.8
"23/08/03","21:00",0.0,29.7,66.3,1002.4,323.2,1.3,6.0,231.9,0.00,22.8,27.4
"23/08/03","22:00",0.0,28.0,74.0,1002.9,344.5,0.7,2.2,333.6,0.00,23.0,27.3
"23/08/03","23:00",0.0,27.3,77.5,1003.1,313.7,1.2,2.0,294.0,0.00,23.1,26.8
"23/08/03","24:00",0.0,26.7,80.5,1002.9,326.7,0.8,2.5,344.8,0.00,23.1,26.7
"23/08/04","01:00",0.0,26.2,82.6,1002.9,323.1,0.7,1.6,345.0,0.00,23.0,26.6
"23/08/04","02:00",0.0,25.9,84.5,1003.1,324.1,1.3,2.2,304.4,0.00,23.1,26.3
"23/08/04","03:00",0.0,25.6,85.2,1003.1,315.6,0.6,1.8,316.6,0.00,23.0,26.1
"23/08/04","04:00",0.0,26.0,85.1,1002.9,280.9,0.8,2.2,323.0,0.00,23.3,25.9
"23/08/04","05:00",0.0,26.2,84.4,1003.4,311.1,1.0,2.0,348.3,0.00,23.4,25.7
"23/08/04","06:00",0.0,25.9,85.8,1003.4,310.6,0.8,1.8,318.1,0.00,23.4,25.7
"23/08/04","07:00",0.0,28.8,79.9,1002.6,9.4,0.7,1.4,337.4,0.26,25.0,25.6
"23/08/04","08:00",0.0,31.7,68.2,1004.1,161.2,1.0,2.4,157.9,1.22,25.2,26.1
"23/08/04","09:00",0.0,32.2,66.6,1004.1,158.9,1.3,3.4,139.3,1.51,25.2,26.2
"23/08/04","10:00",0.0,32.5,63.5,1003.8,186.0,2.0,3.9,208.1,1.84,24.7,26.5
"23/08/04","11:00",0.0,33.4,59.5,1003.6,187.8,1.6,4.5,224.0,1.82,24.5,26.8
"23/08/04","12:00",0.0,35.7,52.9,1003.4,196.8,1.8,5.8,229.0,3.13,24.6,27.4
"23/08/04","13:00",0.0,35.6,52.0,1002.4,271.7,1.1,4.7,211.4,2.07,24.3,27.9
"23/08/04","14:00",0.0,36.7,46.6,1001.9,244.6,1.2,4.9,215.9,2.78,23.4,28.2
"23/08/04","15:00",0.0,36.9,45.1,1001.0,218.1,2.7,5.2,286.0,2.09,23.1,28.8
"23/08/04","16:00",0.0,37.1,45.9,1000.8,319.2,1.6,4.3,235.0,1.98,23.6,28.7
"23/08/04","17:00",0.0,36.2,46.6,1000.5,235.2,2.0,5.5,343.1,1.12,23.0,28.8
"23/08/04","18:00",0.0,33.7,55.1,1000.0,258.0,1.6,5.2,242.5,0.30,23.5,28.6
"23/08/04","19:00",0.0,31.4,60.6,999.3,263.9,1.2,4.5,234.5,0.00,22.9,28.2
"23/08/04","20:00",0.0,30.2,64.2,999.1,262.4,0.8,5.8,236.3,0.00,22.7,28.1
"23/08/04","21:00",0.0,29.2,68.1,999.6,320.3,1.1,3.9,338.2,0.00,22.7,27.7
"23/08/04","22:00",0.0,28.1,73.5,1000.0,325.7,1.1,3.2,331.7,0.00,23.0,27.3
"23/08/04","23:00",0.0,27.1,78.2,999.6,329.2,0.7,2.8,344.6,0.00,23.0,27.0
"23/08/04","24:00",0.0,26.3,81.4,999.6,284.9,0.8,1.7,323.7,0.00,22.9,27.0
"23/08/05","01:00",0.0,26.2,83.0,998.9,331.6,0.8,2.2,342.7,0.00,23.1,26.7
"23/08/05","02:00",0.0,25.8,84.8,998.9,330.0,1.0,1.8,245.1,0.00,23.1,26.4
"23/08/05","03:00",0.0,25.6,86.4,998.4,304.1,0.7,1.7,335.4,0.00,23.2,26.1
"23/08/05","04:00",0.0,25.7,87.6,998.4,302.6,0.7,1.8,340.0,0.00,23.5,25.9
"23/08/05","05:00",0.0,26.0,87.7,998.9,310.7,1.0,1.4,308.6,0.00,23.8,26.0
"23/08/05","06:00",0.0,26.3,87.2,998.9,297.6,0.5,1.4,328.4,0.00,24.0,25.7
"23/08/05","07:00",0.0,30.2,75.2,998.6,123.0,0.8,2.2,151.3,0.41,25.4,25.8
"23/08/05","08:00",0.0,31.9,66.6,999.8,116.7,0.7,2.2,112.1,1.04,24.9,26.2
"23/08/05","09:00",0.0,32.6,64.3,1000.3,125.2,1.0,2.8,123.7,1.42,25.0,26.3
"23/08/05","10:00",0.0,33.7,59.4,1000.3,147.3,1.2,3.7,116.4,1.81,24.7,26.4
"23/08/05","11:00",0.0,35.1,53.5,1000.5,149.3,1.5,5.8,222.8,2.03,24.3,27.1
"23/08/05","12:00",0.0,37.0,50.0,999.8,168.0,1.6,4.9,171.1,3.01,24.9,27.6
"23/08/05","13:00",0.0,37.7,46.5,999.1,161.4,1.8,4.9,122.1,2.83,24.3,28.2
"23/08/05","14:00",0.0,35.9,49.5,997.7,158.8,1.3,3.9,117.5,1.41,23.7,28.5
"23/08/05","15:00",0.0,35.9,52.0,997.0,119.6,1.3,3.6,120.2,0.97,24.5,28.5
"23/08/05","16:00",0.0,35.0,55.6,996.3,63.0,1.1,3.7,39.7,0.95,24.8,28.5
"23/08/05","17:00",0.0,34.0,57.0,995.1,87.1,1.3,4.3,102.6,0.29,24.3,28.2
"23/08/05","18:00",0.0,33.2,60.4,995.1,128.2,1.1,3.2,124.1,0.02,24.5,28.2
"23/08/05","19:00",0.0,31.9,63.4,995.3,119.3,1.0,3.5,128.3,0.00,24.1,27.9
"23/08/05","20:00",0.0,31.0,64.7,995.1,128.5,0.7,3.4,118.7,0.00,23.6,27.6
"23/08/05","21:00",0.0,30.7,66.6,995.6,117.3,0.8,3.1,158.6,0.00,23.8,27.4
"23/08/05","22:00",0.0,29.8,71.9,995.1,59.4,0.5,2.5,39.0,0.00,24.2,27.2
"23/08/05","23:00",0.0,29.3,72.4,996.0,100.9,1.1,3.1,136.8,0.00,23.9,27.1
"23/08/05","24:00",0.0,29.1,73.0,996.0,98.5,1.2,3.6,87.2,0.00,23.8,26.9
"23/08/06","01:00",0.0,28.6,74.7,995.3,88.3,1.0,2.4,106.4,0.00,23.7,26.7
"23/08/06","02:00",0.0,28.3,76.1,995.6,67.4,0.6,1.8,54.5,0.00,23.7,26.6
"23/08/06","03:00",0.0,27.6,78.1,995.1,40.1,0.7,2.0,359.2,0.00,23.5,26.6
"23/08/06","04:00",0.0,27.4,78.9,995.6,306.3,0.5,2.6,105.9,0.00,23.5,26.6
"23/08/06","05:00",0.0,26.8,82.0,995.1,339.2,1.1,2.1,126.5,0.00,23.5,26.2
"23/08/06","06:00",0.0,26.9,84.5,995.6,293.7,0.6,2.0,340.9,0.01,24.1,26.2
"23/08/06","07:00",0.0,29.1,77.9,995.1,100.3,0.8,2.6,114.6,0.19,24.9,26.0
"23/08/06","08:00",0.0,30.1,71.6,995.3,110.8,1.1,3.7,114.9,0.72,24.4,26.0
"23/08/06","09:00",0.0,31.3,70.6,995.6,150.9,1.5,3.7,136.3,0.76,25.4,26.2
"23/08/06","10:00",0.0,32.3,66.3,996.7,115.1,1.3,4.1,158.0,1.63,25.2,26.5
"23/08/06","11:00",0.0,33.0,63.5,996.0,88.0,1.3,4.5,143.1,1.26,25.2,26.8
"23/08/06","12:00",0.0,33.0,61.1,995.6,105.7,1.3,5.2,104.6,1.16,24.5,27.1
"23/08/06","13:00",0.0,32.6,61.6,994.6,126.5,1.8,7.9,141.2,0.97,24.3,27.3
"23/08/06","14:00",0.0,34.3,58.3,994.6,100.9,1.6,5.1,135.9,1.59,25.0,27.4
"23/08/06","15:00",0.0,33.2,59.9,994.4,104.1,1.5,5.1,104.6,0.86,24.4,27.7
"23/08/06","16:00",0.0,32.3,61.6,993.7,138.3,2.1,6.7,115.9,0.58,24.0,27.4
"23/08/06","17:00",0.0,31.8,63.2,993.2,109.1,1.7,4.9,114.1,0.40,24.0,27.5
"23/08/06","18:00",0.0,31.0,65.8,993.0,92.9,1.3,4.5,122.3,0.12,23.9,27.4
"23/08/06","19:00",0.0,30.1,68.4,992.5,103.1,1.5,4.4,149.3,0.01,23.7,27.1
"23/08/06","20:00",0.0,29.6,71.5,993.2,91.0,0.7,2.9,79.7,0.00,23.9,27.0
"23/08/06","21:00",0.0,28.7,77.7,994.4,119.7,0.8,3.9,112.6,0.00,24.5,26.7
"23/08/06","22:00",0.0,28.5,79.7,994.4,93.0,0.7,3.1,134.1,0.00,24.7,26.6
"23/08/06","23:00",0.0,28.4,78.9,994.8,7.8,0.3,2.6,165.5,0.00,24.4,26.5
"23/08/06","24:00",0.0,28.0,78.8,994.6,349.9,0.3,2.4,132.6,0.00,24.0,26.5
"23/08/07","01:00",0.0,27.8,80.5,995.1,40.4,0.5,1.4,10.9,0.00,24.2,26.4
"23/08/07","02:00",0.0,26.3,85.2,994.8,287.7,0.5,2.4,345.4,0.00,23.7,26.4
"23/08/07","03:00",0.0,26.3,87.3,995.1,307.2,0.6,1.8,295.2,0.00,24.1,26.1
"23/08/07","04:00",0.0,26.5,87.3,995.3,342.3,1.1,1.9,356.5,0.00,24.3,26.2
"23/08/07","05:00",0.0,26.2,86.9,995.8,316.4,0.6,1.8,330.8,0.00,23.9,26.2
"23/08/07","06:00",0.0,27.0,83.8,996.5,31.0,0.6,1.7,326.9,0.00,24.1,25.8
"23/08/07","07:00",0.0,28.0,79.4,996.5,119.2,0.8,2.7,81.6,0.14,24.1,26.0
"23/08/07","08:00",0.0,28.8,75.2,996.5,89.3,1.1,2.7,102.4,0.29,24.0,25.8
"23/08/07","09:00",0.0,29.4,73.5,996.0,103.2,1.1,2.8,102.1,0.28,24.2,25.8
"23/08/07","10:00",0.0,30.4,71.0,996.3,114.7,1.0,3.3,139.1,0.41,24.6,26.1
"23/08/07","11:00",0.0,30.9,68.1,996.7,96.1,1.3,3.5,130.9,0.71,24.4,26.1
"23/08/07","12:00",0.0,31.0,68.6,996.7,88.1,1.3,4.3,113.0,0.73,24.6,26.1
"23/08/07","13:00",0.0,29.2,79.1,995.8,75.7,1.0,5.1,141.9,0.59,25.2,26.4
"23/08/07","14:00",0.0,30.0,76.6,996.5,113.9,1.1,4.0,131.6,0.78,25.5,26.5
"23/08/07","15:00",0.0,30.2,74.3,996.0,100.7,0.8,4.2,130.9,0.91,25.2,26.6
"23/08/07","16:00",0.0,30.9,71.2,996.5,111.2,1.3,4.0,118.0,0.87,25.1,26.7
"23/08/07","17:00",0.0,30.6,70.3,995.8,91.1,1.3,4.1,135.4,0.53,24.6,26.8
"23/08/07","18:00",0.0,29.7,72.8,995.6,109.4,1.2,4.1,106.1,0.23,24.3,26.8
"23/08/07","19:00",0.0,28.9,76.7,996.3,112.8,1.3,3.4,81.3,0.00,24.4,26.7
"23/08/07","20:00",0.0,28.7,77.3,996.7,100.2,1.2,4.2,114.8,0.00,24.4,26.5
"23/08/07","21:00",0.0,28.2,79.2,997.2,128.0,1.0,3.1,47.7,0.00,24.3,26.3
"23/08/07","22:00",0.0,27.8,81.9,997.7,88.6,1.0,3.5,129.6,0.00,24.5,26.2
"23/08/07","23:00",0.0,27.7,81.7,997.7,46.4,0.8,2.9,113.7,0.00,24.3,26.0
"23/08/07","24:00",0.0,27.2,84.6,997.4,15.1,0.3,2.6,51.5,0.00,24.4,26.0
"23/08/08","01:00",0.0,27.6,82.8,997.7,102.7,1.1,3.7,106.2,0.00,24.5,26.0
"23/08/08","02:00",0.0,27.6,81.9,997.2,105.3,1.2,3.5,135.8,0.00,24.3,25.9
"23/08/08","03:00",0.0,27.5,82.2,997.2,88.2,1.0,3.5,89.8,0.00,24.2,25.9
"23/08/08","04:00",0.0,27.3,83.6,997.7,120.5,1.1,4.2,76.9,0.00,24.3,25.8
"23/08/08","05:00",0.0,27.3,83.7,997.7,117.9,1.0,3.7,98.2,0.00,24.3,26.0
"23/08/08","06:00",0.2,26.6,87.3,998.6,66.1,0.6,2.5,119.1,0.00,24.4,25.8
"23/08/08","07:00",3.0,26.1,89.9,999.6,103.6,0.5,2.1,108.1,0.08,24.4,25.7
"23/08/08","08:00",1.4,26.4,91.3,998.9,95.2,0.8,2.6,124.1,0.40,24.9,25.7
"23/08/08","09:00",0.0,26.9,90.1,999.3,105.9,1.2,4.7,149.6,0.63,25.2,25.7
"23/08/08","10:00",0.0,29.8,83.1,999.1,86.0,1.1,3.1,72.8,1.36,26.7,25.8
"23/08/08","11:00",0.0,30.4,74.7,999.6,98.0,1.6,5.2,123.8,1.81,25.4,26.2
"23/08/08","12:00",0.0,31.0,71.9,999.3,100.7,2.1,6.4,113.7,0.98,25.4,26.2
"23/08/08","13:00",0.0,31.0,70.6,998.9,86.8,1.8,5.4,82.6,0.98,25.1,26.5
"23/08/08","14:00",0.0,31.3,68.9,998.9,110.8,2.1,6.2,110.4,1.00,24.9,26.6
"23/08/08","15:00",0.0,30.7,69.0,998.2,97.2,1.6,5.6,129.6,0.47,24.4,26.9
"23/08/08","16:00",0.0,30.2,71.5,998.9,95.8,1.7,5.1,74.7,0.52,24.5,26.7
"23/08/08","17:00",0.0,30.4,72.0,998.9,106.9,1.6,4.0,133.5,0.46,24.8,26.6
"23/08/08","18:00",0.0,29.5,74.7,998.6,94.2,1.3,4.8,121.6,0.08,24.6,26.5
"23/08/08","19:00",0.0,29.0,76.0,999.6,99.5,1.1,4.4,102.8,0.00,24.4,26.3
"23/08/08","20:00",0.0,28.7,77.9,1000.3,67.5,0.6,3.2,121.5,0.00,24.5,26.4
"23/08/08","21:00",0.0,28.6,78.4,1000.5,104.7,1.0,2.8,74.1,0.00,24.5,26.1
"23/08/08","22:00",0.0,28.3,79.8,1000.8,51.7,0.5,2.8,94.1,0.00,24.5,26.1
"23/08/08","23:00",0.0,28.5,79.4,1000.8,75.1,1.0,2.6,31.1,0.00,24.6,26.2
"23/08/08","24:00",0.0,28.3,79.8,1000.3,99.8,0.5,2.9,102.8,0.00,24.5,26.0
"23/08/09","01:00",0.0,28.4,80.0,1000.3,113.4,0.5,2.5,114.9,0.00,24.7,26.0
"23/08/09","02:00",0.0,27.8,83.4,999.8,98.0,0.5,3.4,350.7,0.00,24.8,25.8
"23/08/09","03:00",0.0,28.0,82.9,1000.0,81.7,0.7,2.6,105.2,0.00,24.9,25.7
"23/08/09","04:00",0.0,27.9,83.7,1000.5,76.8,0.7,2.9,351.3,0.00,24.9,25.8
"23/08/09","05:00",0.0,28.0,82.5,1000.3,107.4,0.8,3.2,108.8,0.00,24.8,25.8
"23/08/09","06:00",0.0,28.3,81.9,1000.8,113.2,1.0,3.3,112.6,0.02,24.9,25.9
"23/08/09","07:00",0.0,29.0,80.8,1001.0,111.1,1.1,2.8,119.0,0.14,25.4,25.7
"23/08/09","08:00",0.0,29.9,77.2,1000.0,104.3,1.1,4.1,162.8,0.50,25.5,26.0
"23/08/09","09:00",0.0,30.2,75.8,1000.8,148.9,1.8,4.4,181.9,0.19,25.5,26.1
"23/08/09","10:00",0.6,28.8,82.3,1001.2,152.0,1.3,4.4,128.3,0.15,25.5,25.9
"23/08/09","11:00",0.4,28.7,86.8,1001.2,28.0,0.6,1.9,141.4,0.57,26.3,26.2
"23/08/09","12:00",0.2,29.9,84.8,1001.5,163.9,0.6,2.8,4.6,1.28,27.1,26.2
"23/08/09","13:00",0.0,30.2,77.0,1001.2,133.7,1.5,3.7,149.2,0.80,25.8,26.5
"23/08/09","14:00",0.0,31.1,75.3,1001.0,107.9,1.0,3.3,69.4,0.69,26.2,26.4
"23/08/09","15:00",0.0,29.9,79.6,1000.5,122.7,0.8,4.5,118.0,0.50,26.0,26.6
"23/08/09","16:00",0.0,29.3,83.0,999.6,90.1,0.5,2.1,112.4,0.06,26.2,26.5
"23/08/09","17:00",0.0,30.8,76.6,1000.8,85.4,0.7,2.1,101.7,0.35,26.2,26.5
"23/08/09","18:00",0.0,29.9,78.4,1000.0,73.3,0.8,3.1,118.7,0.01,25.8,26.7
"23/08/09","19:00",0.0,29.4,79.2,1000.8,103.3,0.8,2.2,97.6,0.00,25.5,26.6
"23/08/09","20:00",0.0,29.4,78.7,1001.2,95.0,1.1,3.2,73.4,0.00,25.4,26.4
"23/08/09","21:00",0.0,28.9,80.2,1001.5,84.4,0.7,2.7,122.2,0.00,25.2,26.5
"23/08/09","22:00",0.0,28.8,80.4,1001.0,90.5,0.6,2.4,129.6,0.00,25.1,26.2
"23/08/09","23:00",0.0,28.7,80.5,1001.0,86.5,1.0,2.8,160.9,0.00,25.1,26.1
"23/08/09","24:00",0.0,27.9,83.4,1001.0,85.3,1.0,3.5,75.8,0.00,24.9,26.2
"23/08/10","01:00",0.2,27.4,86.7,1000.8,103.2,1.1,2.8,90.7,0.00,25.0,25.9
"23/08/10","02:00",0.2,26.9,87.2,1000.3,69.0,0.6,3.4,25.0,0.00,24.6,26.0
"23/08/10","03:00",0.0,27.5,83.8,1000.0,118.7,0.8,3.2,112.2,0.00,24.6,25.9
"23/08/10","04:00",0.0,27.9,81.8,1000.3,120.5,1.1,3.6,155.0,0.00,24.5,25.7
"23/08/10","05:00",0.0,28.2,80.5,1000.8,147.2,1.3,4.2,138.1,0.00,24.6,25.7
"23/08/10","06:00",0.0,28.5,77.3,1000.8,129.9,1.5,4.4,134.3,0.00,24.2,25.7
"23/08/10","07:00",0.0,29.3,70.5,1000.5,148.1,2.0,5.0,164.8,0.23,23.4,25.8
"23/08/10","08:00",0.0,31.8,65.0,1001.9,136.9,1.8,5.6,164.4,0.95,24.4,25.8
"23/08/10","09:00",0.0,32.4,60.4,1002.9,132.5,2.3,7.3,127.5,1.85,23.8,26.0
"23/08/10","10:00",0.0,33.6,56.0,1002.9,137.1,2.8,7.5,118.0,2.61,23.6,26.3
"23/08/10","11:00",0.0,32.5,61.9,1002.9,131.0,3.2,9.0,160.7,2.41,24.3,26.5
"23/08/10","12:00",0.0,33.8,56.6,1002.2,134.6,3.2,7.8,139.6,2.99,24.0,26.8
"23/08/10","13:00",0.0,33.3,55.6,1001.9,146.9,2.8,7.5,121.0,2.47,23.3,27.5
"23/08/10","14:00",0.0,33.4,59.5,1001.0,121.6,2.7,7.4,112.1,1.25,24.5,27.4
"23/08/10","15:00",0.0,33.2,61.2,1000.8,126.6,2.3,6.3,153.3,1.72,24.8,27.7
"23/08/10","16:00",0.0,32.9,59.8,1001.0,117.0,2.3,7.7,153.9,1.84,24.1,27.7
"23/08/10","17:00",0.0,31.7,65.9,999.6,119.3,1.6,4.9,127.0,0.40,24.6,27.6
"23/08/10","18:00",0.0,30.0,70.1,999.3,113.3,1.8,6.4,102.1,0.34,24.0,27.3
"23/08/10","19:00",0.0,29.3,73.3,999.3,122.5,1.8,6.0,126.6,0.03,24.1,27.1
"23/08/10","20:00",0.0,28.9,74.4,1000.8,116.4,1.5,4.9,129.6,0.00,23.9,27.0
"23/08/10","21:00",0.0,28.6,75.5,1001.5,109.3,1.2,3.9,116.2,0.00,23.9,26.8
"23/08/10","22:00",0.0,28.4,76.1,1001.7,135.1,1.0,3.9,106.8,0.00,23.8,26.6
"23/08/10","23:00",0.0,28.3,76.1,1001.5,88.8,1.0,2.7,179.8,0.00,23.7,26.6
"23/08/10","24:00",0.0,28.3,76.6,1001.2,93.2,1.1,3.1,19.0,0.00,23.8,26.6
"23/08/11","01:00",0.0,28.2,75.7,1000.8,104.7,0.8,3.4,114.5,0.00,23.5,26.2
"23/08/11","02:00",0.0,27.4,78.3,1000.5,49.7,0.6,2.0,123.3,0.00,23.3,26.2
"23/08/11","03:00",0.0,27.7,78.1,1000.5,53.5,0.7,2.2,100.6,0.00,23.6,26.0
"23/08/11","04:00",0.0,27.4,79.6,1000.8,68.6,0.8,2.2,124.1,0.00,23.6,25.9
"23/08/11","05:00",0.0,27.1,80.5,1001.0,137.8,0.8,2.9,105.3,0.00,23.5,25.9
"23/08/11","06:00",0.0,27.4,81.0,1001.0,72.9,0.8,3.4,143.5,0.00,23.9,25.6
"23/08/11","07:00",0.0,27.7,80.8,1001.5,110.2,0.7,4.2,183.4,0.08,24.1,25.7
"23/08/11","08:00",0.0,29.7,73.0,1000.8,116.4,1.7,4.2,109.0,0.65,24.4,25.8
"23/08/11","09:00",0.0,31.2,67.0,1002.9,85.8,1.2,3.5,142.9,1.59,24.4,26.2
"23/08/11","10:00",0.0,31.2,66.0,1001.9,135.2,1.8,4.2,125.6,1.28,24.1,26.5
"23/08/11","11:00",0.0,32.7,60.6,1002.4,161.9,2.2,4.2,211.0,1.52,24.1,26.7
"23/08/11","12:00",0.0,35.3,52.4,1002.2,95.4,1.1,4.1,162.4,2.03,24.1,26.9
"23/08/11","13:00",0.0,34.4,53.1,1001.5,165.2,1.5,4.4,130.4,1.78,23.5,27.4
"23/08/11","14:00",0.0,34.5,50.8,1000.5,41.9,1.0,3.6,117.1,1.50,22.9,27.7
"23/08/11","15:00",0.0,35.6,49.0,1000.0,90.6,1.0,2.9,172.0,1.35,23.3,27.9
"23/08/11","16:00",0.0,36.0,46.5,999.8,101.7,1.0,3.3,87.9,1.14,22.8,27.9
"23/08/11","17:00",0.0,35.6,45.6,999.3,115.6,1.1,3.2,119.2,1.03,22.1,28.1
"23/08/11","18:00",0.0,33.7,49.4,998.9,107.8,0.7,3.4,134.0,0.29,21.7,27.9
"23/08/11","19:00",0.0,30.0,63.5,997.4,339.3,0.6,2.4,33.6,0.00,22.4,27.5
"23/08/11","20:00",0.0,28.5,69.4,998.4,335.9,0.8,1.9,336.8,0.00,22.4,27.1
"23/08/11","21:00",0.0,27.1,74.0,999.1,325.9,0.7,2.1,7.9,0.00,22.1,27.0
"23/08/11","22:00",0.0,26.3,77.6,999.6,329.2,0.8,1.7,327.0,0.00,22.1,26.7
"23/08/11","23:00",0.0,25.9,79.5,999.8,283.2,0.7,2.2,334.0,0.00,22.1,26.3
"23/08/11","24:00",0.0,25.4,82.1,999.6,320.8,0.8,2.2,344.2,0.00,22.2,26.2
"23/08/12","01:00",0.0,24.9,84.3,999.3,324.5,0.8,1.9,321.8,0.00,22.1,25.8
"23/08/12","02:00",0.0,24.5,86.1,999.1,331.0,1.0,2.5,341.2,0.00,22.1,25.7
"23/08/12","03:00",0.0,24.0,88.5,998.9,322.5,1.0,1.6,312.0,0.00,22.0,25.6
"23/08/12","04:00",0.0,23.6,89.6,999.1,317.4,1.0,2.2,332.0,0.00,21.8,25.4
"23/08/12","05:00",0.0,23.2,90.8,999.8,291.2,0.3,1.6,307.0,0.00,21.7,25.1
"23/08/12","06:00",0.0,23.9,91.9,999.3,335.3,1.5,2.4,344.4,0.00,22.5,25.1
"23/08/12","07:00",0.0,27.4,87.4,999.6,13.4,0.5,2.1,10.6,0.28,25.2,24.9
"23/08/12","08:00",0.0,31.0,71.8,1000.0,88.8,0.7,2.0,116.3,1.02,25.3,25.3
"23/08/12","09:00",0.0,33.0,64.8,1001.0,109.6,0.8,2.4,191.4,1.83,25.5,25.4
"23/08/12","10:00",0.0,34.8,55.6,1001.0,34.5,1.5,4.3,190.2,2.56,24.6,26.0
"23/08/12","11:00",0.0,36.4,49.8,1001.0,143.8,1.1,4.1,224.8,2.96,24.3,26.5
"23/08/12","12:00",0.0,37.6,44.3,999.8,339.4,1.0,3.5,231.8,3.00,23.4,27.4
"23/08/12","13:00",0.0,38.0,38.0,999.6,332.5,1.7,5.1,330.4,2.85,21.3,27.9
"23/08/12","14:00",0.0,38.9,34.1,998.9,9.5,1.6,4.9,337.9,3.14,20.3,28.4
"23/08/12","15:00",0.0,37.9,35.2,998.2,10.6,2.2,5.2,43.6,2.54,19.9,28.8
"23/08/12","16:00",0.0,36.6,38.7,997.0,355.6,2.5,5.5,13.6,1.85,20.3,28.9
"23/08/12","17:00",0.0,35.8,40.6,996.5,11.5,1.7,4.7,329.3,1.06,20.4,28.7
"23/08/12","18:00",0.0,32.8,50.9,996.3,347.7,2.3,5.1,327.2,0.29,21.3,28.5
"23/08/12","19:00",0.0,30.5,56.8,995.3,338.5,2.3,5.2,349.9,0.00,21.0,27.9
"23/08/12","20:00",0.0,28.9,61.4,996.7,342.8,1.6,4.3,344.4,0.00,20.8,27.6
"23/08/12","21:00",0.0,28.0,69.7,996.7,332.3,1.5,4.9,356.9,0.00,22.0,27.3
"23/08/12","22:00",0.0,27.3,74.7,997.0,312.0,1.0,3.1,341.9,0.00,22.5,26.9
"23/08/12","23:00",0.0,26.3,77.8,997.7,300.2,0.8,2.8,352.9,0.00,22.2,26.8
"23/08/12","24:00",0.0,26.3,79.7,997.4,309.4,1.1,2.7,343.0,0.00,22.6,26.5
"23/08/13","01:00",0.0,26.1,80.8,997.2,317.5,1.1,3.6,346.3,0.00,22.6,26.0
"23/08/13","02:00",0.0,25.6,83.1,997.4,329.6,1.0,2.6,326.0,0.00,22.6,26.2
"23/08/13","03:00",0.0,25.6,84.2,997.2,329.1,1.7,2.7,336.3,0.00,22.8,25.9
"23/08/13","04:00",0.0,25.4,85.4,997.4,315.3,1.1,3.3,341.8,0.00,22.8,25.7
"23/08/13","05:00",0.0,25.0,86.7,997.4,340.0,1.5,2.9,345.0,0.00,22.7,25.8
"23/08/13","06:00",0.0,25.4,86.8,997.7,336.2,1.7,3.9,337.1,0.00,23.1,25.6
"23/08/13","07:00",0.0,27.7,80.8,997.9,347.1,1.5,3.3,333.9,0.28,24.1,25.5
"23/08/13","08:00",0.0,30.9,68.6,998.4,19.1,1.1,2.9,355.6,0.97,24.5,25.5
"23/08/13","09:00",0.0,33.1,60.1,999.8,181.0,0.7,2.0,191.6,1.74,24.4,26.1
"23/08/13","10:00",0.0,34.5,54.6,1000.3,163.4,1.2,3.9,228.5,2.46,24.1,26.4
"23/08/13","11:00",0.0,35.7,50.1,1000.3,280.3,1.1,2.9,136.6,2.98,23.7,27.2
"23/08/13","12:00",0.0,37.3,47.7,999.6,195.0,2.1,4.3,210.7,2.80,24.4,27.6
"23/08/13","13:00",0.0,34.9,53.4,997.7,351.6,0.8,3.4,339.3,1.28,24.1,28.1
"23/08/13","14:00",0.0,38.9,43.4,998.9,160.4,1.0,3.1,195.2,2.15,24.2,28.6
"23/08/13","15:00",0.0,36.6,47.8,997.4,287.1,0.7,3.4,315.5,1.26,23.8,28.5
"23/08/13","16:00",0.0,36.2,48.9,996.3,352.5,2.1,4.9,333.2,1.05,23.8,28.7
"23/08/13","17:00",0.0,34.0,53.3,995.8,351.4,2.5,6.5,320.3,0.32,23.2,28.2
"23/08/13","18:00",0.0,31.9,59.8,995.6,350.0,2.7,7.0,349.5,0.33,23.2,28.3
"23/08/13","19:00",0.0,30.1,67.8,995.6,356.3,2.6,6.4,353.5,0.00,23.5,28.0
"23/08/13","20:00",0.0,29.0,66.9,996.5,347.3,1.8,6.3,343.9,0.00,22.3,27.5
"23/08/13","21:00",0.0,28.7,67.8,997.4,342.1,1.7,5.0,335.3,0.00,22.2,27.2
"23/08/13","22:00",0.0,28.4,70.2,997.2,333.5,1.1,3.3,346.7,0.00,22.5,27.1
"23/08/13","23:00",1.2,27.2,78.7,997.0,248.7,0.7,2.9,335.4,0.00,23.2,27.0
"23/08/13","24:00",1.2,25.1,88.8,998.2,332.7,1.1,2.9,336.0,0.00,23.2,26.6
"23/08/14","01:00",0.0,24.3,91.5,997.4,281.6,0.7,2.2,340.3,0.00,22.9,26.5
"23/08/14","02:00",0.0,24.3,92.6,997.0,346.1,1.3,2.5,331.5,0.00,23.1,26.4
"23/08/14","03:00",0.0,24.2,93.1,997.0,305.2,0.7,3.5,343.2,0.00,23.1,26.0
"23/08/14","04:00",0.0,24.3,93.7,996.7,323.9,1.3,2.4,349.0,0.00,23.3,25.7
"23/08/14","05:00",0.0,24.5,93.9,997.0,321.6,1.0,2.9,336.7,0.00,23.5,25.7
"23/08/14","06:00",0.0,24.9,94.2,996.5,326.2,1.3,2.2,336.9,0.00,23.9,25.7